Regional Weather Roundup
Issued by NWS Cleveland, OH

Home | Current Version | Previous Version | Text Only | Print | Product List | Glossary Off
Versions: 1 2 3 4 5 6 7 8 9 10 11 12 13 14 15 16 17 18 19 20 21 22 23 24 25 26 27 28 29 30 31 32 33 34 35 36 37 38 39 40 41 42 43 44 45 46 47 48 49 50

000
ASUS41 KCLE 020602
RWRCLE
OHIO REGIONAL WEATHER ROUNDUP
NATIONAL WEATHER SERVICE CLEVELAND, OH
200 AM EDT WED SEP 02 2015

NOTE: "FAIR" INDICATES FEW OR NO CLOUDS BELOW 12,000 FEET WITH NO
SIGNIFICANT WEATHER AND/OR OBSTRUCTIONS TO VISIBILITY.

OHZ001>008-015>018-024>027-034-035-043-044-020700-
   NORTHWEST OHIO

CITY           SKY/WX    TMP DP  RH WIND       PRES   REMARKS
DEFIANCE       FAIR      71  66  84 S5        30.09S
FINDLAY        FAIR      70  66  87 SW5       30.09S
TOLEDO EXPRESS FAIR      71  67  87 SW5       30.07F
TOLEDO EXEC    FAIR      71  66  84 SW5       30.08F
LIMA           FAIR      70  66  87 S8        30.11S
$$

OHZ009>014-019>023-028>033-038-089-020700-
   NORTHEAST OHIO

CITY           SKY/WX    TMP DP  RH WIND       PRES   REMARKS
CLE-HOPKINS    FAIR      71  67  87 SW6       30.10F
CLE-LAKEFRONT  FAIR      76  67  73 S5        30.07S
CUY CO. ARPT   NOT AVBL
LORAIN-ELYRIA  FAIR      68  67  96 CALM      30.10S FOG
ASHTABULA      FAIR      66  65  96 CALM      30.10S FOG
AKRON-CANTON   FAIR      72  66  81 CALM      30.11F
WOOSTER        FAIR      67  66  97 CALM      30.11F FOG
MANSFIELD      FAIR      72  66  81 SW6       30.12F
YOUNGSTOWN     MOCLDY    68  64  87 CALM      30.10F
$$

OHZ042-051>053-060>062-070>072-077>081-020700-
  SOUTHWEST OHIO

CITY           SKY/WX    TMP DP  RH WIND       PRES   REMARKS
CINC-COVINGTON FAIR      70  67  90 CALM      30.12F
CINC-LUNKEN    FAIR      68  68 100 CALM      30.12S FOG
HAMILTON       FAIR      68  66  93 CALM      30.12F FOG
DAYTON         FAIR      70  67  90 SW5       30.13S
WRIGHT-PAT AFB FAIR      68  68  99 CALM      30.12S
DAYTON GENERAL FAIR      69  65  86 CALM      30.12S
WILMINGTON     FAIR      65  63  93 CALM      30.13S FOG
$$

OHZ036-037-039>041-045>050-054>059-063>069-073>076-082>088-020700-
  CENTRAL AND SOUTHEAST OHIO

CITY           SKY/WX    TMP DP  RH WIND       PRES   REMARKS
COLUMBUS       FAIR      70  68  93 E3        30.11S FOG
OSU AIRPORT    FAIR      72  66  81 CALM      30.12S
BOLTON FIELD   NOT AVBL
RICKENBACK AFB NOT AVBL
NEWARK         FAIR      67  66  97 CALM      30.11F FOG
MARION         FAIR      67  64  90 S3        30.11F FOG
LANCASTER      FAIR      64  62  93 CALM      30.12S FOG
ZANESVILLE     FAIR      68  65  90 CALM      30.11F FOG
NEW PHILLY     FAIR      68  67  96 CALM      30.11F FOG
$$



USA.gov is the U.S. government's official web portal to all federal, state and local government web resources and services.